Station 44025 (LLNR 830) - LONG ISLAND - 30 NM South of Islip, NY Image indicating link to RSS feed of recent meteorological observations for station 44025


Conditions at 44025 as of
(4:10 pm EDT)
2010 GMT on 05/24/2024:
     

Click on the graph icon in the table below to see a time series plot of the last five days of that observation.

5-day plot - Wind Direction Wind Direction (WDIR):SSW ( 200 deg true )
5-day plot - Wind Speed Wind Speed (WSPD): 5.8 kts
5-day plot - Wind Gust Wind Gust (GST): 7.8 kts
5-day plot - Atmospheric Pressure Atmospheric Pressure (PRES):29.80 in
5-day plot - Air Temperature Air Temperature (ATMP): 64.8 °F
5-day plot - Water Temperature Water Temperature (WTMP): 58.3 °F
5-day plot - Dew Point Dew Point (DEWP): 63.1 °F
5-day plot - Wind Speed at 10 Meters Wind Speed at 10 meters (WSPD10M): 7.8 kts
5-day plot - Wind Speed at 20 Meters Wind Speed at 20 meters (WSPD20M): 7.8 kts
5-day plot -  Wind Speed, Wind Gust and Atmospheric Pressure Combined plot of Wind Speed, Gust, and Air Pressure
Supplemental Measurements
Highest 1-minute Wind Speed
Time (EDT)5-day plot - 1-Minute Wind Speed WSPD 5-day plot - 1-Minute Wind Direction WDIR
4:10 pm 7.8 kts-
Previous observations
TIME
(EDT)
5-day plot - Wind Direction
WDIR
 
5-day plot - Wind Speed
WSPD
kts
5-day plot - Wind Gust
GST
kts
5-day plot - Wave Height
WVHT
ft
5-day plot - Dominant Wave Period
DPD
sec
5-day plot - Average Wave Period
APD
sec
5-day plot - Mean Wave Direction
MWD
 
5-day plot - Atmospheric Pressure
PRES
in
5-day plot - Pressure Tendency
PTDY
in
5-day plot - Air Temperature
ATMP
°F
5-day plot - Water Temperature
WTMP
°F
5-day plot - Dew Point
DEWP
°F
5-day plot - Salinity
SAL
psu
5-day plot - Visibility
VIS
nmi
5-day plot - Tide (above MLLW)
TIDE
ft
2024-05-24 04:00 pm S 5.8 7.8----29.80-0.03 64.9 58.5 63.1---
2024-05-24 03:50 pm S 7.8 7.8 1.6 55.1 S29.80- 64.8 58.8 63.0---
2024-05-24 03:40 pm S 7.8 9.7----29.80- 64.8 59.5 63.0---
2024-05-24 03:30 pm S 7.8 9.7----29.81- 64.9 60.1 63.0---
2024-05-24 03:20 pm S 7.8 9.7 1.6 85.0SSE29.81- 64.9 61.7 62.8---
2024-05-24 03:10 pm S 7.8 9.7 1.6-5.0SSE29.82- 64.8 59.7 62.8---
2024-05-24 03:00 pmSSW 7.8 9.7----29.82-0.03 65.1 59.4 62.8---
2024-05-24 02:50 pmSSW 7.8 7.8 1.6 55.0 S29.82- 64.6 59.5 62.8---
2024-05-24 02:40 pmSSW 7.8 7.8----29.82- 64.8 60.4 62.8---
2024-05-24 02:30 pm SW 5.8 7.8----29.83- 64.8 59.2 62.6---
2024-05-24 02:20 pmWSW 5.8 7.8 1.6 55.1 S29.83- 64.6 58.8 62.8---
2024-05-24 02:10 pm SW 5.8 7.8 1.6-5.1 S29.83- 64.8 58.8 62.8---
2024-05-24 02:00 pm SW 5.8 7.8----29.83-0.03 64.8 59.0 62.8---
2024-05-24 01:50 pm SW 5.8 7.8 2.0 55.1 S29.83- 64.8 58.8 62.8---
2024-05-24 01:40 pm SW 5.8 7.8----29.83- 64.2 58.6 62.8---
2024-05-24 01:30 pm SW 5.8 7.8----29.84- 64.0 59.4 62.6---
2024-05-24 01:20 pm W 5.8 5.8 1.6 55.1 S29.84- 64.0 60.1 62.6---
2024-05-24 01:10 pm W 5.8 5.8----29.84- 63.9 59.0 62.4---
2024-05-24 01:00 pm W 5.8 7.8----29.84-0.03 63.9 59.0 62.6---
2024-05-24 12:50 pm W 5.8 7.8 1.6 55.2 S29.84- 63.7 59.0 62.6---
2024-05-24 12:40 pm W 5.8 7.8----29.84- 63.5 58.8 62.4---
2024-05-24 12:30 pm W 5.8 7.8----29.84- 63.5 59.0 62.6---
2024-05-24 12:20 pmWSW 5.8 7.8 1.6 55.2 S29.85- 63.3 59.0 62.4---
2024-05-24 12:10 pm W 3.9 5.8 1.6-5.2 S29.85- 63.3 59.0 62.4---
2024-05-24 12:00 pm W 3.9 5.8----29.85-0.02 63.3 59.5 62.4---
2024-05-24 11:50 amWNW 5.8 5.8 2.0 65.2 S29.85- 63.0 59.4 62.2---
2024-05-24 11:40 am W 5.8 5.8----29.86- 63.1 58.8 62.2---
2024-05-24 11:30 am W 5.8 7.8----29.85- 63.0 59.2 62.2---
2024-05-24 11:20 am W 5.8 7.8 1.6 65.0 S29.86- 62.8 58.8 61.9---
2024-05-24 11:10 am W 5.8 7.8 1.6-5.0 S29.86- 62.8 58.6 61.9---
2024-05-24 11:00 am W 5.8 7.8----29.86+0.00 62.6 57.9 61.7---
2024-05-24 10:50 am W 5.8 7.8 2.0 55.2 S29.86- 62.6 57.9 61.7---
2024-05-24 10:40 am W 5.8 5.8----29.86- 62.6 57.7 61.7---
2024-05-24 10:30 amWSW 5.8 5.8----29.86- 62.4 57.9 61.3---
2024-05-24 10:20 am W 5.8 5.8 2.0 55.1 S29.86- 62.6 58.3 61.3---
2024-05-24 10:10 am W 5.8 5.8 2.0-5.1 S29.86- 62.6 58.3 61.3---
2024-05-24 10:00 am W 5.8 5.8----29.87+0.01 62.6 58.3 61.3---
2024-05-24 09:50 amWNW 5.8 5.8 2.0 85.2 SE29.87- 62.6 58.1 61.3---
2024-05-24 09:40 amWNW 5.8 7.8----29.87- 62.6 58.3 61.3---
2024-05-24 09:30 amWNW 7.8 7.8----29.87- 62.6 57.0 61.2---
2024-05-24 09:20 amWNW 7.8 9.7 2.0 55.0 S29.87- 62.6 56.8 61.0---
2024-05-24 09:10 amWNW 7.8 9.7 2.0-5.0 S29.88- 62.4 56.7 60.8---
2024-05-24 09:00 amWNW 7.8 7.8----29.87+0.02 62.2 56.5 60.6---
2024-05-24 08:50 amWNW 5.8 5.8 2.0 65.1 S29.87- 61.7 56.7 60.1---
2024-05-24 08:40 am W 5.8 7.8----29.88- 61.7 56.7 59.9---
2024-05-24 08:30 am W 5.8 7.8----29.88- 61.5 56.7 59.9---
2024-05-24 08:20 am W 5.8 7.8 2.0 54.9 S29.87- 61.5 56.5 60.3---
2024-05-24 08:10 am W 5.8 5.8----29.87- 61.2 56.5 59.9---
2024-05-24 08:00 am W 5.8 5.8----29.87+0.02 61.2 56.5 60.1---
2024-05-24 07:50 am W 5.8 5.8 2.0 65.0 S29.87- 61.7 56.5 60.4---
2024-05-24 07:40 am W 5.8 7.8----29.87- 61.5 56.5 60.3---
2024-05-24 07:30 am W 5.8 7.8----29.86- 61.3 56.5 60.1---
2024-05-24 07:20 am W 5.8 7.8 2.0 54.8 S29.87- 60.8 56.3 59.5---
2024-05-24 07:10 amWSW 5.8 7.8 2.0-4.8 S29.87- 61.0 56.5 59.5---
2024-05-24 07:00 amWSW 5.8 7.8----29.86+0.00 61.0 56.3 59.4---
2024-05-24 06:50 amWSW 7.8 7.8 2.0 64.9SSW29.85- 60.8 56.7 59.4---
2024-05-24 06:40 amWSW 7.8 9.7----29.86- 61.2 56.1 59.4---
2024-05-24 06:30 am SW 9.7 9.7----29.86- 61.2 56.5 59.7---
2024-05-24 06:20 am SW 7.8 9.7----29.86- 60.6 56.1 59.5---
2024-05-24 06:10 am-------29.85-- 56.1----
2024-05-24 06:00 am SW 5.8 7.8----29.85-0.01 60.1 56.3 59.4---
2024-05-24 05:50 am SW 5.8 7.8 2.3 64.9 S29.85- 60.1 56.7 59.4---
2024-05-24 05:40 am SW 5.8 7.8 2.3-4.9 S29.85- 59.7 56.3 59.2---
2024-05-24 05:30 amSSW 5.8 7.8----29.85- 59.7 56.5 59.0---
2024-05-24 05:20 am SW 5.8 7.8 2.3 64.9 S29.85- 59.7 56.3 59.2---
2024-05-24 05:10 amSSW 5.8 7.8 2.3-4.9 S29.85- 59.4 56.3 58.8---
2024-05-24 05:00 amSSW 5.8 5.8----29.85-0.02 59.4 56.5 58.8---
2024-05-24 04:50 amSSW 5.8 7.8 2.3 54.9SSW29.85- 59.4 56.3 58.8---
2024-05-24 04:40 amSSW 5.8 5.8----29.85- 59.5 56.5 59.0---
2024-05-24 04:30 amSSW 5.8 5.8----29.85- 59.7 56.7 59.2---
2024-05-24 04:20 amSSW 5.8 5.8 2.3 64.9 S29.85- 59.7 56.5 59.2---
2024-05-24 04:10 am SW 5.8 5.8 2.3-4.9 S29.85- 60.1 56.7 59.5---
2024-05-24 04:00 am SW 5.8 5.8----29.86-0.02 60.1 56.7 59.4---
2024-05-24 03:50 am SW 5.8 5.8 2.3 64.8 S29.86- 60.1 56.7 59.4---
2024-05-24 03:40 am SW 7.8 7.8----29.86- 60.4 56.8 59.4---
2024-05-24 03:30 am SW 7.8 7.8----29.86- 60.8 56.8 59.9---
2024-05-24 03:20 am SW 5.8 7.8 2.0 64.7SSE29.86- 60.1 56.8 59.2---
2024-05-24 03:10 am SW 5.8 7.8 2.0-4.7SSE29.86- 60.3 56.3 59.2---
2024-05-24 03:00 am SW 7.8 9.7----29.86-0.01 60.8 56.1 59.4---
2024-05-24 02:50 am SW 7.8 7.8 2.3 65.0 S29.86- 60.8 56.3 59.5---
2024-05-24 02:40 amSSW 5.8 7.8----29.86- 60.4 56.8 59.0---
2024-05-24 02:30 am SW 7.8 9.7----29.87- 60.8 57.0 59.4---
2024-05-24 02:20 am SW 7.8 9.7 2.3 54.8SSW29.87- 60.4 57.0 59.0---
2024-05-24 02:10 am SW 7.8 7.8 2.3-4.8SSW29.87- 60.6 57.2 59.0---
2024-05-24 02:00 am SW 7.8 7.8----29.87+0.00 60.8 57.0 59.0---
2024-05-24 01:50 am SW 7.8 7.8 2.3 54.7 S29.87- 60.8 56.8 59.0---
2024-05-24 01:40 am SW 5.8 7.8----29.87- 60.8 56.8 59.0---
2024-05-24 01:30 am SW 5.8 7.8----29.87- 60.8 56.8 58.8---
2024-05-24 01:20 am SW 7.8 7.8 2.3 54.7SSW29.87- 60.8 56.8 58.8---
2024-05-24 01:10 am SW 7.8 7.8 2.3-4.7SSW29.88- 60.8 56.8 58.8---
2024-05-24 01:00 am SW 7.8 9.7----29.88+0.00 60.8 57.0 58.6---
2024-05-24 12:50 am SW 7.8 9.7 2.3 64.8 S29.88- 61.0 56.8 58.8---
2024-05-24 12:40 am SW 9.7 9.7----29.88- 61.3 56.8 58.8---
2024-05-24 12:30 am SW 9.7 11.7----29.88- 61.3 56.7 59.2---
2024-05-24 12:20 am SW 9.7 9.7 2.3 64.9 S29.88- 61.5 56.7 59.4---
2024-05-24 12:10 am SW 9.7 9.7 2.3-4.9 S29.88- 61.7 56.7 59.7---
2024-05-24 12:00 am SW 9.7 11.7----29.88+0.01 61.5 56.5 59.7---
2024-05-23 11:50 pm SW 7.8 9.7 2.3 54.9 S29.87- 61.2 56.3 59.4---
2024-05-23 11:40 pm SW 7.8 9.7----29.88- 61.2 56.3 59.0---
2024-05-23 11:30 pm SW 7.8 9.7----29.87- 61.0 56.3 59.0---
2024-05-23 11:20 pmSSW 7.8 9.7 2.6 64.9 S29.88- 60.3 56.3 58.5---
2024-05-23 11:10 pmSSW 7.8 7.8 2.6-4.9 S29.87- 60.4 56.7 58.5---
2024-05-23 11:00 pmSSW 5.8 7.8----29.87+0.00 60.8 56.8 58.6---
2024-05-23 10:50 pm SW 7.8 7.8 2.6 64.8 S29.87- 60.6 56.8 58.6---
2024-05-23 10:40 pm SW 5.8 7.8----29.88- 60.3 56.8 58.5---
2024-05-23 10:30 pm SW 7.8 7.8----29.88- 60.4 56.8 59.0---
2024-05-23 10:20 pm SW 7.8 7.8 3.0 64.9 S29.88- 60.1 56.8 58.8---
2024-05-23 10:10 pmSSW 5.8 7.8----29.88- 60.1 56.8 59.0---
2024-05-23 10:00 pm SW 5.8 7.8----29.88+0.01 59.9 56.8 59.0---
2024-05-23 09:50 pm SW 5.8 7.8 2.6 64.9 S29.88- 59.5 56.8 58.8---
2024-05-23 09:40 pm SW 5.8 7.8----29.88- 59.4 56.7 58.8---
2024-05-23 09:30 pmSSW 5.8 5.8----29.88- 59.0 56.5 58.5---
2024-05-23 09:20 pmSSW 5.8 5.8 2.6 54.8 S29.88- 59.4 56.5 58.6---
2024-05-23 09:10 pmSSW 5.8 7.8 2.6-4.8 S29.87- 59.4 56.5 58.8---
2024-05-23 09:00 pmSSW 5.8 7.8----29.86+0.00 59.5 56.5 59.0---
2024-05-23 08:50 pmSSW 5.8 7.8 2.6 54.9 S29.86- 59.4 56.5 58.8---
2024-05-23 08:40 pmSSW 5.8 7.8----29.86- 59.2 56.5 58.6---
2024-05-23 08:30 pmSSW 5.8 5.8----29.86- 59.4 56.3 58.8---
2024-05-23 08:20 pmSSW 5.8 7.8 2.6 64.9 S29.86- 59.7 56.3 59.2---
2024-05-23 08:10 pmSSW 7.8 7.8 2.6-4.9 S29.87- 59.7 56.3 59.2---
2024-05-23 08:00 pm SW 5.8 5.8----29.87+0.00 59.7 56.1 59.0---
2024-05-23 07:50 pm SW 5.8 5.8 2.6 54.9 S29.85- 60.3 56.1 59.5---
2024-05-23 07:40 pmSSW 5.8 5.8----29.86- 59.9 56.1 59.4---
2024-05-23 07:20 pm--- 2.6 54.8SSW29.86-- 55.9----
2024-05-23 07:10 pmSSW 3.9 5.8----29.86- 59.4 55.9 59.0---
2024-05-23 07:00 pm SW 3.9 5.8----29.87-0.02 59.7 55.8 59.4---
2024-05-23 06:50 pm SW 3.9 5.8 2.6 54.7SSW29.87- 60.1 55.8 59.7---
2024-05-23 06:40 pmSSW 3.9 3.9----29.87- 59.5 55.8 59.4---
2024-05-23 06:30 pmSSW 3.9 5.8----29.86- 60.1 55.8 59.7---
2024-05-23 06:20 pmSSW 5.8 7.8 2.6 54.7SSW29.87- 60.6 55.6 60.4---
2024-05-23 06:10 pmSSW 5.8 5.8 2.6-4.7SSW29.87- 60.3 55.6 60.1---
2024-05-23 06:00 pm SW 5.8 7.8----29.87-0.01 60.4 55.6 60.4---
2024-05-23 05:50 pmSSW 3.9 5.8 2.6 54.7SSW29.86- 59.9 55.6 59.9---
2024-05-23 05:40 pmSSW 3.9 5.8----29.86- 59.2 55.6 59.2---
2024-05-23 05:30 pmSSW 3.9 5.8----29.87- 58.8 55.6 58.8---
2024-05-23 05:20 pmWSW 3.9 5.8 2.6 54.6SSW29.87- 59.2 55.6 59.2---
2024-05-23 05:10 pm W 3.9 5.8 2.6-4.6SSW29.87- 59.4 55.6 59.4---
2024-05-23 05:00 pmWNW 3.9 5.8----29.87-0.02 59.5 55.4 59.5---
2024-05-23 04:50 pmWNW 7.8 9.7 2.3 54.6SSW29.87- 59.7 55.4 59.7---
2024-05-23 04:40 pm W 7.8 9.7----29.87- 59.9 55.6 59.9---
2024-05-23 04:30 pm W 7.8 7.8----29.88- 59.9 55.4 59.9---
2024-05-23 04:20 pm W 7.8 9.7 2.6 54.7SSW29.88- 60.1 55.4 60.1---
2024-05-23 04:10 pm W 9.7 11.7 2.6-4.7SSW29.88- 60.3 55.4 60.3---
2024-05-23 04:00 pm W 9.7 11.7----29.88-0.01 59.9 55.4 59.9---
2024-05-23 03:50 pm W 9.7 9.7 2.6 54.6SSW29.88- 59.7 55.4 59.7---

Detailed Wave Summary
for 44025 as of (3:40 pm EDT)
1940 GMT on 05/24/2024:

These wave data are displayed in rounded times.

     

Click on the graph icon in the table below to see a time series plot of the last five days of that observation.

5-day plot - Significant Wave Height Significant Wave Height (WVHT): 1.6 ft
5-day plot - Swell Height Swell Height (SwH): 1.6 ft
5-day plot - Swell Period Swell Period (SwP): 4.8 sec
5-day plot - Swell Direction Swell Direction (SwD): S
5-day plot - Wind Wave Height Wind Wave Height (WWH): 0.7 ft
5-day plot - Wind Wave Period Wind Wave Period (WWP): 3.7 sec
5-day plot - Wind Wave Direction Wind Wave Direction (WWD): S
5-day plot - Average Wave Period Average Wave Period (APD): 5.1 sec
Previous observations
TIME
(EDT)
5-day plot - Wave Height
WVHT
ft
5-day plot - Swell Height
SwH
ft
5-day plot - Swell Period
SwP
sec
5-day plot - Swell Direction
SwD
 
5-day plot - Wind Wave Height
WWH
ft
5-day plot - Wind Wave Period
WWP
sec
5-day plot - Wind Wave Direction
WWD
 
5-day plot - Wave Steepness
STEEPNESS
 
5-day plot - Average Wave Period
APD
sec
2024-05-24 03:10 pm 1.6 1.6 7.7SSE 0.7 3.8 SSW N/A 5.0
2024-05-24 02:40 pm 1.6 1.6 5.0 S 0.7 3.3 S N/A 5.0
2024-05-24 02:10 pm 1.6 1.6 5.3 S 0.7 3.8 SSW N/A 5.1
2024-05-24 01:40 pm 2.0 1.6 5.0 S 0.7 3.7 SSW N/A 5.1
2024-05-24 01:10 pm 1.6 1.6 5.3 S 0.7 3.6 SSW N/A 5.1
2024-05-24 12:40 pm 1.6 1.6 5.3 S 0.7 3.4 SSW N/A 5.2
2024-05-24 12:10 pm 1.6 1.6 5.3 S 0.7 3.7 S N/A 5.2
2024-05-24 11:40 am 2.0 1.6 5.6 S 0.7 3.7 SSW N/A 5.2
2024-05-24 11:10 am 1.6 1.6 5.6 S 0.7 3.6 SSW N/A 5.0
2024-05-24 10:40 am 2.0 2.0 5.0 S 0.7 3.6 S N/A 5.2
2024-05-24 10:10 am 2.0 1.6 5.3 S 0.7 3.8 S N/A 5.1
2024-05-24 09:40 am 2.0 1.6 8.3 SE 0.7 3.6 S N/A 5.2
2024-05-24 09:10 am 2.0 1.6 5.3 S 0.7 3.8 S N/A 5.0
2024-05-24 08:40 am 2.0 2.0 5.6 S 0.7 3.6 S N/A 5.1
2024-05-24 08:10 am 2.0 1.6 5.3 S 0.7 4.0 SSW N/A 4.9
2024-05-24 07:40 am 2.0 2.0 5.6 S 0.7 3.6 S N/A 5.0
2024-05-24 07:10 am 2.0 1.6 5.3 S 1.0 4.0 S N/A 4.8
2024-05-24 06:40 am 2.0 2.0 5.6SSW 0.7 3.4 SSW N/A 4.9
2024-05-24 05:40 am 2.3 2.0 5.6 S 1.0 4.0 SSW N/A 4.9
2024-05-24 05:10 am 2.3 2.3 5.9 S 1.0 3.8 SSW N/A 4.9
2024-05-24 04:40 am 2.3 2.0 5.0SSW 1.0 3.8 S N/A 4.9
2024-05-24 04:10 am 2.3 2.3 5.6 S 1.0 3.3 SSW N/A 4.9
2024-05-24 03:40 am 2.3 2.0 5.6 S 1.0 3.6 SSW N/A 4.8
2024-05-24 03:10 am 2.0 2.0 5.9SSE 1.0 3.3 SSW N/A 4.7
2024-05-24 02:40 am 2.3 2.3 5.9 S 1.0 4.0 SSW N/A 5.0
2024-05-24 02:10 am 2.3 2.3 5.0SSW 1.0 3.3 SSW N/A 4.8
2024-05-24 01:40 am 2.3 2.0 5.0 S 1.0 4.0 SSW N/A 4.7
2024-05-24 01:10 am 2.3 2.3 5.0SSW 1.0 3.7 SSW N/A 4.7
2024-05-24 12:40 am 2.3 2.3 5.9 S 1.0 3.7 SSW N/A 4.8
2024-05-24 12:10 am 2.3 2.3 5.6 S 1.0 4.0 SSW N/A 4.9
2024-05-23 11:40 pm 2.3 2.3 5.3 S 1.0 3.8 SSW N/A 4.9
2024-05-23 11:10 pm 2.6 2.3 5.6 S 1.0 3.6 SSW STEEP 4.9
2024-05-23 10:40 pm 2.6 2.3 5.6 S 1.0 3.8 SSW N/A 4.8
2024-05-23 10:10 pm 3.0 2.6 5.6 S 1.0 3.3 S STEEP 4.9
2024-05-23 09:40 pm 2.6 2.3 5.6 S 1.0 3.6 SSW N/A 4.9
2024-05-23 09:10 pm 2.6 2.6 5.3 S 1.0 3.6 S STEEP 4.8
2024-05-23 08:40 pm 2.6 2.6 5.3 S 1.0 3.8 S STEEP 4.9
2024-05-23 08:10 pm 2.6 2.6 5.6 S 1.0 4.0 S STEEP 4.9
2024-05-23 07:40 pm 2.6 2.6 5.0 S 1.0 3.7 SSWVERY_STEEP 4.9
2024-05-23 07:10 pm 2.6 2.6 5.0SSW 1.0 3.3 SVERY_STEEP 4.8
2024-05-23 06:40 pm 2.6 2.3 5.3SSW 1.0 3.7 S N/A 4.7
2024-05-23 06:10 pm 2.6 2.6 5.0SSW 1.0 3.6 SVERY_STEEP 4.7
2024-05-23 05:40 pm 2.6 2.3 5.3SSW 1.0 3.8 SSW N/A 4.7
2024-05-23 05:10 pm 2.6 2.3 5.0SSW 1.3 3.8 SSW N/A 4.6
2024-05-23 04:40 pm 2.3 2.3 5.3SSW 1.0 3.8 S N/A 4.6
2024-05-23 04:10 pm 2.6 2.3 5.0SSW 1.3 4.5 SSW N/A 4.7

Plot of wave energy versus frequency (and period)